Regional Weather Roundup
Issued by NWS Jackson, KY

Home | Current Version | Previous Version | Text Only | Print | Product List | Glossary Off
Versions: 1 2 3 4 5 6 7 8 9 10 11 12 13 14 15 16 17 18 19 20 21 22 23 24 25 26 27 28 29 30 31 32 33 34 35 36 37 38 39 40 41 42 43 44 45 46 47 48 49 50

000
ASUS43 KJKL 052010
RWRJKL

EAST KENTUCKY HOURLY WEATHER ROUNDUP
NATIONAL WEATHER SERVICE JACKSON KY
300 PM EST MON DEC 05 2016

NOTE: "FAIR" INDICATES FEW OR NO CLOUDS BELOW 12,000 FEET WITH
NO SIGNIFICANT WEATHER AND/OR OBSTRUCTIONS TO VISIBILITY.

* THESE REPORTS ARE NOT UNDER NWS QUALITY CONTROL AND MAY NOT
  REPORT WEATHER SUCH AS PRECIPITATION AND FOG.

KYZ079-080-083-085-087-088-110-112-115-119-120-052100
...EASTERN KENTUCKY...

CITY           SKY/WX    TMP DP  RH WIND       PRES   REMARKS
JACKSON        PTSUNNY   47  37  68 CALM      30.01F
LONDON         CLOUDY    48  38  68 E5        30.00F
SOMERSET*      CLOUDY    46  37  71 E5        30.01F
MONTICELLO*    CLOUDY    48  41  76 VRB6      29.99F
WILLIAMSBURG*  CLOUDY    48  43  81 E3        29.99F
MIDDLESBORO*   CLOUDY    50  43  76 CALM      29.99F
HARLAN APT*    PTCLDY    50  39  66 CALM      29.99S
PIKE CO APT*   CLOUDY    47  38  71 CALM      30.01F
BIG SANDY APT* CLOUDY    48  38  66 N6        30.02F
MOREHEAD APT*  CLOUDY    46  34  61 NE7       30.04F
ASHLAND*       CLOUDY    48  37  66 NE5       30.03F
$$

KYZ035-036-041-042-044-050-067-078-099-052100
...CENTRAL KENTUCKY...

CITY           SKY/WX    TMP DP  RH WIND       PRES   REMARKS
MT STERLING*   CLOUDY    45  36  70 E5        30.04S
FLEMING/MASON* PTSUNNY   45  35  66 NE5       30.04F
DANVILLE*      CLOUDY    43  36  75 E5        30.02F
LEXINGTON      CLOUDY    45  34  65 E7        30.02F
FRANKFORT      PTSUNNY   44  34  67 E9        30.02F
LOUISVILLE     CLOUDY    45  33  63 SE8       30.02F
LEBANON*       CLOUDY    43  36  75 CALM      30.01F
GLASGOW*       CLOUDY    43  39  84 E7        30.00S
BOWLING GREEN  CLOUDY    44  38  79 MISG      30.00F
$$

KYZ091>093-OHZ055-061-077-WVZ005-015-034-035-042-052100
...SOUTHERN OHIO/WEST VIRGINIA...

CITY           SKY/WX    TMP DP  RH WIND       PRES   REMARKS
COVINGTON      CLOUDY    43  33  68 NE6       30.02F
COLUMBUS       PTSUNNY   40  31  70 CALM      30.08F
DAYTON         PTSUNNY   41  31  67 E3        30.05F
WILMINGTON     CLOUDY    41  33  73 E6        30.04F
HUNTINGTON     CLOUDY    48  34  58 E3        30.03F
CHARLESTON     PTSUNNY   49  36  61 N6        30.03F
PINEVILLE*     CLOUDY    49  33  54 MISG      30.05F
BECKLEY        MOSUNNY   45  33  63 NE6       30.00F
BLUEFIELD      CLOUDY    47  34  60 N3        30.00F
LOGAN CO APT*    N/A     50  36  57 CALM      30.01F
$$

VAZ002-007-008-TNZ017-027-036-066-071-052100
...SOUTHWEST VIRGINIA/EAST TENNESSEE...

CITY           SKY/WX    TMP DP  RH WIND       PRES   REMARKS
WISE*          MOSUNNY   46  36  66 NE3       30.00S
JONESVILLE*      N/A     52  41  66 CALM      30.01S
ABINGDON*      MOSUNNY   52  40  62 E5        29.99S
BRISTOL        PTSUNNY   52  40  63 E5        29.99S
MORRISTOWN*    CLEAR     52  46  82 E3        29.97F
SEVIERVILLE*   CLOUDY    50  46  87 NE6       29.97F
KNOXVILLE      CLOUDY    52  46  80 NE7       29.96F
OAK RIDGE      CLOUDY    52  45  77 NE5       29.98F
CROSSVILLE     CLOUDY    46  44  93 E6        29.95F
NASHVILLE      CLOUDY    47  42  83 NE7       29.96F
$$

...KEY TO REMARKS...
VSB - VISIBILITY IN MILES
WCI - WIND CHILL INDEX
HX  - HEAT INDEX

$$



USA.gov is the U.S. government's official web portal to all federal, state and local government web resources and services.